Location: Charlottesville
(38.0290°N, 78.4770°W)
Time: 04:27:36
(UTC-04:00)

ISS - Pass Details

Date: 08 October 2017
Orbit: 401 x 408 km, 51.6° (Epoch: 21 October)

Event Time Altitude Azimuth Distance (km) Brightness Sun altitude
Rises 19:50:05 0° 320° (NW) 2,326 0.7 -13.5°
Reaches altitude 10° 19:53:59 10° 6° (N) 1,467 -1.0 -14.2°
Maximum altitude 19:54:26 10° 14° (NNE) 1,455 -1.1 -14.3°
Drops below altitude 10° 19:54:54 10° 22° (NNE) 1,467 -1.2 -14.4°
Enters shadow 19:55:20 - 30° (NNE) 1,503 -1.2 -14.5°
